Regional Weather Roundup
Issued by NWS

Home | Current Version | Previous Version | Graphics & Text | Print | Product List | Glossary On
Versions: 1 2 3 4 5 6 7 8 9 10 11 12 13 14 15 16 17 18 19 20 21 22 23 24 25 26 27 28 29 30 31 32 33 34 35 36 37 38 39 40 41 42 43 44 45 46 47 48 49 50
000
ASUS45 KCYS 311910
RWRWY

WYOMING REGIONAL WEATHER ROUNDUP
NATIONAL WEATHER SERVICE CHEYENNE WY
100 PM MDT THU JUL 31 2014

NOTE:  "FAIR" INDICATES FEW OR NO CLOUDS BELOW 12,000 FEET
WITH NO SIGNIFICANT WEATHER AND/OR OBSTRUCTIONS TO VISIBILITY.

WYZ001-312000-
YELLOWSTONE NATIONAL PARK

CITY           SKY/WX    TMP DP  RH WIND       PRES   REMARKS
LK YELLOWSTONE   N/A     59  51  75 N7        30.47R
W YELLOWSTONE  NOT AVBL

$$
WYZ002>013-054>058-071-098>099-312000-
NORTHERN WYOMING

CITY           SKY/WX    TMP DP  RH WIND       PRES   REMARKS
JACKSON        SUNNY     75  45  33 CALM      30.33F
CODY           MOSUNNY   81  39  22 NE6       30.22F
GREYBULL       SUNNY     88  36  15 VRB3      30.15F
WORLAND        SUNNY     86  37  17 VRB3      30.17F
SHERIDAN       SUNNY     89  39  17 S9        30.15F
BUFFALO        SUNNY     84  27  12 SE9       30.23F
GILLETTE       SUNNY     82  39  21 VRB3      30.20F
HULETT         FAIR      81  46  30 MISG      30.21
NEWCASTLE      FAIR      81  36  19 MISG      30.21

$$
WYZ014>020-022>026-101>103-312000-
CENTRAL WYOMING

CITY           SKY/WX    TMP DP  RH WIND       PRES   REMARKS
BIG PINEY      SUNNY     70  41  34 SW5       30.40F
PINEDALE       CLEAR     70  37  30 S6        30.39F
DUBOIS         MOCLDY    72  34  25 E8        30.37S
LANDER         SUNNY     82  36  19 NE8       30.27F
RIVERTON       SUNNY     76  37  24 SE6       30.29F
CASPER         SUNNY     80  28  15 E10       30.27F
DOUGLAS        SUNNY     79  37  22 E5        30.26F

$$
WYZ021-027>030-104>119-312000-
SOUTHERN WYOMING

CITY           SKY/WX    TMP DP  RH WIND       PRES   REMARKS
EVANSTON       MOSUNNY   70  45  40 NE13G21   30.37F
KEMMERER       MOCLDY    70  41  35 E6        30.41F
FORT BRIDGER   FAIR      69  49  48 E7        30.41F
ROCK SPRINGS   MOSUNNY   75  42  30 NE10G20   30.35F
DIXON          FAIR      74  48  39 SW3       30.33F
RAWLINS        MOSUNNY   74  42  31 E14       30.35F
SARATOGA       FAIR      70  41  35 N3        30.36F
LARAMIE        PTSUNNY   67  44  43 VRB3      30.37F
CHEYENNE       MOSUNNY   74  43  32 VRB5      30.32F
TORRINGTON     SUNNY     82  46  28 S9        30.20F
PINE BLUFFS    CLOUDY    73  43  33 CALM      30.28S

$$


USA.gov is the U.S. government's official web portal to all federal, state and local government web resources and services.